DLH8YX EGPF-EDDF

Flight info

Callsign DLH8YX
Flight time N/A
Altitude 35000
Route NORBO Y96 HAVEN DCT ERKIT N110 DOLAS DCT NAVPI DCT TULIP DCT NOLRU DCT DIXAT DIXAT1D
Aircraft A321/M-SDE3FGHIRWY/LB1

Departure

Time 2026-04-30 13:57
Airport Glasgow Airport (EGPF)

Arrival

Time N/A
Airport Frankfurt Main Airport (EDDF)
Time Latitude Longitude Altitude Speed Heading
2026-04-30 13:36 55.86518 -4.43667 29 ft 0 kts 253°
2026-04-30 13:49 55.86524 -4.43627 29 ft 4 kts 261°
2026-04-30 13:49 55.86526 -4.43581 29 ft 4 kts 274°
2026-04-30 13:49 55.86520 -4.43535 29 ft 4 kts 300°
2026-04-30 13:50 55.86506 -4.43509 29 ft 1 kts 343°
2026-04-30 13:50 55.86505 -4.43508 29 ft 0 kts 344°
2026-04-30 13:54 55.86507 -4.43509 29 ft 1 kts 344°
2026-04-30 13:54 55.86535 -4.43524 29 ft 11 kts 344°
2026-04-30 13:54 55.86650 -4.43582 29 ft 20 kts 344°
2026-04-30 13:54 55.86738 -4.43674 29 ft 12 kts 274°
2026-04-30 13:55 55.86689 -4.43837 29 ft 21 kts 226°
2026-04-30 13:55 55.86585 -4.44033 29 ft 22 kts 227°
2026-04-30 13:55 55.86478 -4.44235 29 ft 23 kts 226°
2026-04-30 13:55 55.86364 -4.44445 29 ft 24 kts 226°
2026-04-30 13:56 55.86259 -4.44642 29 ft 15 kts 234°
2026-04-30 13:56 55.86296 -4.44789 29 ft 15 kts 316°
2026-04-30 13:56 55.86380 -4.44849 29 ft 15 kts 37°
2026-04-30 13:56 55.86572 -4.44493 29 ft 76 kts 46°
2026-04-30 13:57 55.87099 -4.43509 29 ft 140 kts 46°
2026-04-30 13:57 55.87846 -4.42117 453 ft 156 kts 46°
2026-04-30 13:57 55.88491 -4.40567 1214 ft 160 kts 68°
2026-04-30 13:57 55.88470 -4.38457 1614 ft 189 kts 107°
2026-04-30 13:58 55.87585 -4.36515 1844 ft 221 kts 143°
2026-04-30 13:58 55.84249 -4.35600 2681 ft 261 kts 179°
2026-04-30 13:58 55.82443 -4.35679 3601 ft 258 kts 179°
2026-04-30 13:59 55.80660 -4.35759 4525 ft 255 kts 179°
2026-04-30 13:59 55.78885 -4.35827 5393 ft 255 kts 179°
2026-04-30 13:59 55.77114 -4.35885 6246 ft 254 kts 179°
2026-04-30 13:59 55.75360 -4.35715 7035 ft 253 kts 166°
2026-04-30 14:00 55.73753 -4.34437 7750 ft 257 kts 146°
2026-04-30 14:00 55.71768 -4.29100 9091 ft 275 kts 109°
2026-04-30 14:00 55.71249 -4.25830 9773 ft 277 kts 112°
2026-04-30 14:01 55.70631 -4.22588 10455 ft 280 kts 114°
2026-04-30 14:01 55.69947 -4.19206 10613 ft 302 kts 114°
2026-04-30 14:01 55.69205 -4.15595 10745 ft 323 kts 114°
2026-04-30 14:01 55.68421 -4.11732 10874 ft 342 kts 114°
2026-04-30 14:02 55.67619 -4.07710 11186 ft 354 kts 113°
2026-04-30 14:02 55.66809 -4.03565 11743 ft 358 kts 113°
2026-04-30 14:02 55.66002 -3.99383 12360 ft 360 kts 113°
2026-04-30 14:02 55.65192 -3.95182 12977 ft 361 kts 113°
2026-04-30 14:03 55.64375 -3.90960 13535 ft 364 kts 113°
2026-04-30 14:03 55.63546 -3.86699 14063 ft 367 kts 113°
2026-04-30 14:03 55.62705 -3.82405 14595 ft 371 kts 113°
2026-04-30 14:03 55.61855 -3.78082 15114 ft 374 kts 113°
2026-04-30 14:04 55.60998 -3.73723 15617 ft 378 kts 113°
2026-04-30 14:04 55.60131 -3.69310 16104 ft 381 kts 113°
2026-04-30 14:04 55.59250 -3.64847 16534 ft 384 kts 113°
2026-04-30 14:04 55.58363 -3.60374 16988 ft 388 kts 113°
2026-04-30 14:05 55.57463 -3.55860 17451 ft 390 kts 113°
2026-04-30 14:05 55.56556 -3.51325 17896 ft 393 kts 113°
2026-04-30 14:05 55.55641 -3.46757 18355 ft 395 kts 113°
2026-04-30 14:05 55.54732 -3.42229 18767 ft 399 kts 113°
2026-04-30 14:06 55.53800 -3.37597 19200 ft 401 kts 113°
2026-04-30 14:06 55.51926 -3.28259 20051 ft 406 kts 113°
2026-04-30 14:07 55.50020 -3.18807 20837 ft 412 kts 113°
2026-04-30 14:07 55.49053 -3.14044 21239 ft 414 kts 113°
2026-04-30 14:07 55.48076 -3.09247 21627 ft 416 kts 113°
2026-04-30 14:08 55.45617 -3.00043 22332 ft 416 kts 127°
2026-04-30 14:08 55.43803 -2.96081 22680 ft 416 kts 135°
2026-04-30 14:08 55.39513 -2.89197 23350 ft 420 kts 140°
2026-04-30 14:09 55.37334 -2.85759 23700 ft 422 kts 139°
2026-04-30 14:09 55.35148 -2.82298 24023 ft 424 kts 139°
2026-04-30 14:09 55.30740 -2.75325 24693 ft 429 kts 139°
2026-04-30 14:10 55.28546 -2.71866 25028 ft 430 kts 139°
2026-04-30 14:10 55.26310 -2.68354 25350 ft 432 kts 139°
2026-04-30 14:10 55.24069 -2.64841 25679 ft 433 kts 140°
2026-04-30 14:10 55.21813 -2.61314 25985 ft 435 kts 140°
2026-04-30 14:11 55.19551 -2.57784 26267 ft 436 kts 140°
2026-04-30 14:11 55.17283 -2.54253 26531 ft 438 kts 140°
2026-04-30 14:11 55.15000 -2.50703 26780 ft 439 kts 140°
2026-04-30 14:11 55.12711 -2.47144 27020 ft 441 kts 140°
2026-04-30 14:12 55.10420 -2.43586 27258 ft 442 kts 140°
2026-04-30 14:12 55.08121 -2.40022 27538 ft 442 kts 140°
2026-04-30 14:12 55.05823 -2.36467 27858 ft 440 kts 140°
2026-04-30 14:12 55.04310 -2.34130 28080 ft 439 kts 140°
2026-04-30 14:13 55.01254 -2.29416 28510 ft 438 kts 140°
2026-04-30 14:13 54.98977 -2.25909 28849 ft 436 kts 140°
2026-04-30 14:13 54.96705 -2.22417 29164 ft 435 kts 140°
2026-04-30 14:13 54.94439 -2.18939 29497 ft 433 kts 140°
2026-04-30 14:14 54.92182 -2.15480 29806 ft 432 kts 140°
2026-04-30 14:14 54.89929 -2.12032 30120 ft 431 kts 141°
2026-04-30 14:14 54.87678 -2.08592 30434 ft 430 kts 140°
2026-04-30 14:14 54.85440 -2.05176 30727 ft 429 kts 140°
2026-04-30 14:15 54.83195 -2.01757 31029 ft 428 kts 141°
2026-04-30 14:15 54.80961 -1.98362 31320 ft 427 kts 140°
2026-04-30 14:15 54.78725 -1.94970 31602 ft 426 kts 140°
2026-04-30 14:15 54.76493 -1.91591 31874 ft 426 kts 140°
2026-04-30 14:16 54.74294 -1.88266 32150 ft 425 kts 141°
2026-04-30 14:16 54.72071 -1.84910 32426 ft 424 kts 140°
2026-04-30 14:16 54.69844 -1.81553 32700 ft 423 kts 140°
2026-04-30 14:16 54.67626 -1.78213 32969 ft 423 kts 140°
2026-04-30 14:17 54.65413 -1.74880 33234 ft 422 kts 140°
2026-04-30 14:17 54.63200 -1.71552 33495 ft 422 kts 140°
2026-04-30 14:17 54.60993 -1.68242 33747 ft 420 kts 140°
2026-04-30 14:17 54.58783 -1.64934 34018 ft 420 kts 140°
2026-04-30 14:18 54.56579 -1.61639 34277 ft 419 kts 140°
2026-04-30 14:18 54.54376 -1.58356 34522 ft 418 kts 140°
2026-04-30 14:18 54.49973 -1.51804 34948 ft 418 kts 140°
2026-04-30 14:19 54.45556 -1.45248 35276 ft 420 kts 141°
2026-04-30 14:19 54.43343 -1.41966 35301 ft 422 kts 141°
2026-04-30 14:20 54.38892 -1.35370 35293 ft 422 kts 141°
2026-04-30 14:20 54.32210 -1.25529 35305 ft 422 kts 141°
2026-04-30 14:21 54.27741 -1.18967 35302 ft 422 kts 141°
2026-04-30 14:22 54.21046 -1.09168 35310 ft 423 kts 141°
2026-04-30 14:22 54.14335 -0.99373 35311 ft 423 kts 141°
2026-04-30 14:23 54.05340 -0.86394 35315 ft 424 kts 141°
2026-04-30 14:24 53.98737 -0.76334 35314 ft 425 kts 137°
2026-04-30 14:25 53.90371 -0.62256 35324 ft 424 kts 137°
2026-04-30 14:26 53.83993 -0.51862 35330 ft 423 kts 137°
2026-04-30 14:27 53.77610 -0.41569 35330 ft 423 kts 137°
2026-04-30 14:27 53.73355 -0.34718 35326 ft 422 kts 137°
2026-04-30 14:28 53.66984 -0.24451 35324 ft 422 kts 137°
2026-04-30 14:28 53.62737 -0.17622 35319 ft 422 kts 137°
2026-04-30 14:29 53.54946 -0.05173 35325 ft 422 kts 137°
2026-04-30 14:31 53.43556 0.12869 35290 ft 426 kts 137°
2026-04-30 14:31 53.37074 0.23102 35274 ft 428 kts 137°
2026-04-30 14:32 53.30552 0.33328 35284 ft 429 kts 137°
2026-04-30 14:33 53.26190 0.40141 35292 ft 430 kts 137°
2026-04-30 14:33 53.21075 0.50287 35298 ft 430 kts 128°
2026-04-30 14:34 53.17428 0.58201 35306 ft 430 kts 128°
2026-04-30 14:34 53.13758 0.66099 35312 ft 431 kts 128°
2026-04-30 14:35 53.08261 0.77915 35319 ft 431 kts 128°
2026-04-30 14:36 53.04586 0.85779 35314 ft 431 kts 128°
2026-04-30 14:36 53.00899 0.93622 35316 ft 431 kts 128°
2026-04-30 14:37 52.97548 1.01834 35318 ft 431 kts 116°
2026-04-30 14:37 52.95379 1.11124 35323 ft 433 kts 111°
2026-04-30 14:38 52.93275 1.20465 35331 ft 432 kts 111°
2026-04-30 14:38 52.91147 1.29781 35335 ft 432 kts 111°
2026-04-30 14:39 52.89015 1.39094 35337 ft 433 kts 111°
2026-04-30 14:39 52.86882 1.48394 35341 ft 432 kts 111°
2026-04-30 14:40 52.83675 1.62328 35348 ft 432 kts 111°
2026-04-30 14:40 52.81537 1.71551 35351 ft 432 kts 111°
2026-04-30 14:41 52.79384 1.80805 35345 ft 431 kts 111°
2026-04-30 14:41 52.77221 1.90045 35346 ft 431 kts 111°
2026-04-30 14:42 52.75052 1.99271 35341 ft 431 kts 111°
2026-04-30 14:42 52.72880 2.08495 35340 ft 431 kts 111°
2026-04-30 14:43 52.70706 2.17707 35341 ft 431 kts 111°
2026-04-30 14:43 52.68520 2.26905 35344 ft 431 kts 111°
2026-04-30 14:44 52.66317 2.36092 35335 ft 431 kts 111°
2026-04-30 14:44 52.64107 2.45279 35334 ft 431 kts 111°
2026-04-30 14:45 52.61897 2.54467 35331 ft 431 kts 111°
2026-04-30 14:45 52.59685 2.63631 35331 ft 431 kts 111°
2026-04-30 14:46 52.57466 2.72792 35331 ft 431 kts 111°
2026-04-30 14:46 52.55093 2.81857 35332 ft 432 kts 115°
2026-04-30 14:47 52.52435 2.90723 35334 ft 433 kts 116°
2026-04-30 14:47 52.49781 2.99585 35337 ft 433 kts 115°
2026-04-30 14:48 52.47209 3.08434 35338 ft 433 kts 115°
2026-04-30 14:48 52.44633 3.17354 35340 ft 433 kts 115°
2026-04-30 14:49 52.42037 3.26257 35347 ft 434 kts 115°
2026-04-30 14:49 52.39425 3.35166 35349 ft 434 kts 115°
2026-04-30 14:50 52.35496 3.48505 35351 ft 434 kts 115°
2026-04-30 14:51 52.31545 3.61812 35349 ft 433 kts 115°
2026-04-30 14:52 52.27587 3.75082 35339 ft 433 kts 115°
2026-04-30 14:52 52.23618 3.88334 35339 ft 433 kts 115°
2026-04-30 14:53 52.19633 4.01558 35341 ft 433 kts 115°
2026-04-30 14:54 52.14306 4.19139 35340 ft 433 kts 115°
2026-04-30 14:55 52.10288 4.32300 35340 ft 433 kts 115°
2026-04-30 14:56 52.04903 4.49799 35337 ft 433 kts 115°
2026-04-30 14:57 52.00853 4.62924 35346 ft 433 kts 115°
2026-04-30 14:58 51.95422 4.80377 35342 ft 433 kts 115°
2026-04-30 14:58 51.91339 4.93441 35338 ft 433 kts 115°
2026-04-30 15:00 51.84496 5.15149 35331 ft 434 kts 115°
2026-04-30 15:01 51.78971 5.32498 35331 ft 434 kts 115°
2026-04-30 15:01 51.74819 5.45485 35328 ft 434 kts 115°
2026-04-30 15:02 51.72046 5.54130 35333 ft 434 kts 115°
2026-04-30 15:03 51.65074 5.75722 35331 ft 436 kts 115°
2026-04-30 15:04 51.58020 5.97353 35329 ft 438 kts 115°
2026-04-30 15:06 51.50906 6.18998 35331 ft 439 kts 115°
2026-04-30 15:07 51.46292 6.37006 35336 ft 437 kts 109°
2026-04-30 15:08 51.41827 6.55121 35337 ft 437 kts 109°
2026-04-30 15:09 51.36190 6.77744 35332 ft 437 kts 109°
2026-04-30 15:09 51.33933 6.86773 34851 ft 437 kts 109°
2026-04-30 15:10 51.31675 6.95727 34352 ft 436 kts 109°
2026-04-30 15:11 51.26596 7.12370 33347 ft 406 kts 126°
2026-04-30 15:11 51.22402 7.18353 32744 ft 408 kts 143°
2026-04-30 15:12 51.14770 7.24562 31140 ft 406 kts 150°
2026-04-30 15:13 51.09761 7.28533 30183 ft 399 kts 149°
2026-04-30 15:14 50.99679 7.36933 24886 ft 445 kts 148°
2026-04-30 15:14 50.91507 7.43642 23700 ft 418 kts 149°
2026-04-30 15:16 50.79756 7.53187 22261 ft 349 kts 148°
2026-04-30 15:17 50.71397 7.60025 18807 ft 329 kts 148°
2026-04-30 15:18 50.61349 7.68158 16671 ft 316 kts 148°
2026-04-30 15:19 50.55544 7.72849 15567 ft 309 kts 148°